Location: Abries Rivi�re
(44.4167°N, 6.7333°E)
Time: 08:37:30
(UTC+00:00)

Daily predictions for brighter satellites

Satellite Brightness Start Highest point End
(mag) Time Altitude Azimuth Time Altitude Azimuth Time Altitude Azimuth
ADEOS Rocket 3.5 16:45:43 10° NNE 16:52:17 82° WNW 16:59:32 10° SSW
USA 281 3.2 16:46:14 10° SE 16:52:45 75° ENE 16:59:19 10° NNW
FALCON 9 DEB 3.5 16:53:53 10° WSW 16:57:04 52° NNW 17:00:12 10° NE
CZ-4C R/B 4.4 16:54:42 10° NNW 16:58:39 16° NNE 17:02:58 10° NE
Cosmos 2227 Rocket 2.6 16:54:12 10° NNW 16:59:36 43° ENE 17:04:58 10° SE
Cosmos 1110 Rocket 4.4 16:54:37 10° SSW 16:59:50 69° WNW 17:05:04 10° NNE
Cosmos 1892 3.9 16:57:26 10° NNE 17:00:33 23° ENE 17:03:41 10° SE
Cosmos 2263 Rocket 4.1 16:59:33 10° NNE 17:00:37 10° NE 17:01:41 10° NE
Cosmos 1939 Rocket 3.7 16:57:34 10° SE 17:00:57 28° ENE 17:04:19 10° N
Cosmos 1302 Rocket 4.1 16:56:41 10° S 17:01:50 59° ESE 17:07:03 10° NNE
USA 307 3.7 17:02:28 10° NW 17:06:27 35° NNE 17:10:16 11° E
H-2A R/B 3.0 17:02:46 10° N 17:06:46 49° WNW 17:10:43 10° SW
Envisat 4.0 17:02:52 10° S 17:07:49 53° W 17:12:48 10° NNW
COSMO-SKYMED 1 3.3 17:04:41 10° NNE 17:08:38 33° E 17:12:32 10° SSE
Cosmos 1300 2.6 17:05:59 10° S 17:09:47 87° E 17:13:37 10° N
SAR-Lupe-4 4.0 17:06:56 10° NNE 17:10:19 39° E 17:13:42 10° S
USA 308 3.7 17:07:26 10° NW 17:11:26 37° NNE 17:15:04 12° E
Cosmos 1400 Rocket 3.0 17:07:26 10° S 17:11:26 54° E 17:15:26 10° NNE
Cosmos 1697 Rocket 3.5 17:08:06 10° SSE 17:12:54 30° ESE 17:17:44 10° NE
Cosmos 1486 Rocket 4.3 17:07:59 10° N 17:13:08 45° ENE 17:18:12 10° SE
CZ-4B R/B 1.1 17:11:08 10° NNE 17:14:21 79° ESE 17:17:27 10° S
Cosmos 1825 Rocket 4.3 17:10:46 10° NNW 17:15:10 60° W 17:19:29 10° S
Cosmos 1825 3.8 17:13:54 10° NNE 17:16:08 15° ENE 17:17:29 13° E
ERS-2 2.2 17:14:30 10° NNE 17:18:09 84° WNW 17:21:48 10° SSW
Helios 1A Rocket 3.7 17:14:40 10° SE 17:18:17 30° ENE 17:21:53 10° N
Meteor 2-8 Rocket 4.5 17:13:38 10° S 17:19:38 61° E 17:25:40 10° NNE
YAOGAN 1 3.6 17:17:12 10° ESE 17:20:42 24° ENE 17:24:12 10° NNE
S3M 4.5 17:15:28 10° SSE 17:20:57 36° E 17:26:29 10° NNE
BREEZE-M TANK 3.2 17:12:06 10° W 17:22:01 83° N 17:25:00 15° E
Atlas Centaur 2 4.4 17:15:56 10° SW 17:22:35 28° S 17:29:30 10° ESE
NOAA 11 4.2 17:20:03 10° SSE 17:25:30 86° ENE 17:30:58 10° NNW
CZ-2D R/B 3.7 17:22:44 10° SE 17:26:15 37° ENE 17:29:47 10° N
Cosmos 44 4.2 17:22:46 10° WSW 17:27:05 44° NW 17:31:42 10° NNE
Okean O Rocket 2.8 17:23:17 10° S 17:27:29 47° W 17:31:42 10° NNW
Cosmos 1340 2.5 17:23:43 10° N 17:27:31 72° E 17:31:16 10° SSE
Cosmos 2228 4.2 17:24:06 10° SSW 17:28:10 45° WNW 17:32:18 10° N
SAR-Lupe-1 4.0 17:24:39 10° NNE 17:28:11 61° E 17:31:42 10° S
Cosmos 1726 Rocket 4.1 17:24:40 10° SSW 17:28:59 62° W 17:33:21 10° N
CZ-4 R/B 2.0 17:25:41 10° SE 17:29:06 30° ENE 17:32:31 10° N
Aureole 3 2.7 17:31:39 10° S 17:34:44 79° W 17:37:43 10° N
SL-4 R/B 2.8 17:31:34 10° NW 17:34:45 30° NNE 17:36:33 20° ENE
Cosmos 1346 Rocket 3.1 17:31:30 10° N 17:35:19 42° ENE 17:39:07 10° SSE
Cosmos 2058 3.2 17:32:14 10° N 17:36:07 41° ENE 17:40:00 10° SSE
Cosmos 1980 Rocket 3.2 17:32:07 10° SSE 17:36:36 25° ESE 17:39:22 17° ENE
Cosmos 1992 Rocket 4.2 17:33:24 10° S 17:38:24 50° ESE 17:43:25 10° NNE
Cosmos 2297 Rocket 2.3 17:33:32 10° NNW 17:39:14 82° WSW 17:44:53 10° SSE
PSLV R/B 4.0 17:36:39 10° NNE 17:40:46 58° E 17:44:49 10° S
In-Cosmos 22 Rocket 4.1 17:35:31 10° N 17:40:56 85° E 17:46:26 10° S
CZ-2C R/B 3.5 17:37:18 10° SE 17:42:45 46° ENE 17:48:05 10° N
Cosmos 1315 Rocket 3.1 17:41:29 10° SSE 17:45:14 43° E 17:49:04 10° NNE
Cosmos 1553 Rocket 4.0 17:42:48 10° S 17:49:10 84° E 17:55:27 10° N
Cosmos 220 Rocket 3.9 17:46:38 10° SSW 17:50:58 71° ESE 17:55:23 10° NNE
Meteor 2-15 4.4 17:46:43 10° S 17:52:48 72° E 17:58:56 10° NNE
Meteor 2-10 Rocket 3.4 17:49:46 10° S 17:55:02 71° E 18:00:08 10° NNE
BREEZE-M R/B 3.9 17:51:13 10° WNW 17:55:07 55° NNE 17:59:00 25° E
USA 305 2.9 17:52:10 10° NW 17:56:26 64° NNE 17:58:11 33° ESE
SKYMED 2 3.7 17:52:27 10° N 17:56:49 77° WNW 18:01:08 10° SSW
Cosmos 1455 2.1 17:53:22 10° S 17:57:05 59° E 18:00:51 10° NNE
Cosmos 2360 4.3 17:54:04 10° S 17:59:37 56° ESE 18:04:36 13° NE
SeaSat 1 3.5 18:00:38 25° NE 18:00:57 25° NE 18:04:59 10° N
NOSS 3-4 (A) 4.3 17:56:01 10° NNW 18:02:27 40° NE 18:05:39 27° E
NOSS 3-4 (C) 4.3 17:56:07 10° NNW 18:02:32 40° NE 18:05:43 28° E
USA 306 2.8 17:58:40 10° NW 18:02:57 71° NNE 18:04:25 39° ESE
H-2A R/B 2.4 17:58:02 10° SE 18:03:13 48° ENE 18:08:27 10° N
Okean-O 2.5 18:00:11 10° SSE 18:04:37 86° E 18:09:05 10° NNW
MOS 1 Rocket 3.5 18:04:43 10° NNE 18:09:22 50° E 18:14:16 10° S
Cosmos 2278 3.9 18:04:28 10° S 18:09:54 49° ESE 18:12:45 26° NE
NOSS 3-3 (A) 3.8 18:05:05 10° SW 18:10:52 89° SE 18:16:10 16° NE
NOSS 3-3 (C) 3.8 18:05:12 10° SW 18:11:00 88° SE 18:16:14 17° NE
Cosmos 2219 4.5 18:07:17 10° NW 18:12:40 42° WSW 18:18:01 10° S
USA 215 4.2 18:10:10 23° NE 18:13:07 32° NNE 18:18:46 10° NW
Cosmos 1745 Rocket 4.1 18:10:19 10° N 18:16:38 83° W 18:22:59 10° S
Cosmos 44 Rocket 3.1 18:13:42 10° SSW 18:18:25 69° ESE 18:19:58 42° NE
GEOS 3 Rocket 4.0 18:17:20 40° E 18:18:35 47° NE 18:23:44 10° NNW
ARGOS 3.3 18:17:22 36° ESE 18:19:05 49° ENE 18:24:17 10° N
Lacrosse 5 3.3 18:15:23 10° NW 18:19:22 22° NNE 18:20:11 22° NNE
Cosmos 1408 3.0 18:16:05 10° NNW 18:19:42 61° W 18:23:19 10° S
Cosmos 2082 3.7 18:14:20 10° NNW 18:20:07 84° WSW 18:25:50 10° SSE
ATLAS 2AS CENTAUR R/B 3.2 18:17:24 10° NNW 18:24:32 42° NE 18:26:17 37° ENE
Cosmos 1689 Rocket 4.4 18:23:02 10° NNW 18:25:25 23° WNW 18:27:48 10° SW
Cosmos 1076 Rocket 3.9 18:29:54 10° NNW 18:34:06 62° W 18:38:18 10° S
Cosmos 2369 3.9 18:28:39 10° SSW 18:34:22 73° WNW 18:39:11 15° NNE
Cosmos 1777 Rocket 4.4 18:34:25 10° NNW 18:38:35 45° NNE 18:38:35 45° NNE
CSL-04 Rocket 3.7 18:34:53 10° SSE 18:40:26 85° WSW 18:45:59 10° NNW
Cosmos 2227 Rocket 4.0 18:38:36 10° NW 18:43:28 31° WSW 18:48:20 10° SSW
Cosmos 2263 Rocket 2.7 18:40:34 10° NNW 18:45:07 43° NNE 18:45:07 43° NNE
Cosmos 1709 Rocket 4.0 18:39:45 10° N 18:46:10 86° W 18:52:33 10° S
USA 307 3.3 18:42:28 10° WNW 18:46:28 58° WSW 18:46:28 58° WSW
CZ-4C R/B 3.6 18:42:59 10° NNW 18:49:20 36° NE 18:49:38 35° NE
USA 308 3.6 18:47:28 10° WNW 18:51:15 52° WSW 18:51:15 52° WSW
Cosmos 1825 3.5 18:48:17 10° NNW 18:51:50 39° W 18:52:23 37° WSW
YAOGAN 1 4.2 18:52:43 10° SSW 18:56:38 33° W 19:00:35 10° NNW
Cosmos 1697 Rocket 3.7 18:51:21 10° SW 18:56:41 43° WNW 19:01:26 13° NNE
CZ-4 R/B 3.8 19:01:13 10° SW 19:04:10 21° W 19:07:07 10° NW
Milstar 3 4.4 19:04:18 10° SW 19:08:55 19° S 19:09:47 19° S
Cosmos 2315 Rocket 4.2 19:03:47 10° SSW 19:09:56 66° W 19:16:08 10° N
Atlas Centaur 2 4.1 19:04:23 10° WSW 19:11:22 29° S 19:12:40 28° S
SL-4 R/B 4.3 19:10:56 10° WNW 19:12:08 20° WNW 19:12:08 20° WNW
Cosmos 1980 Rocket 2.9 19:14:46 10° SW 19:20:14 51° WNW 19:21:13 46° NNW
SeaSat 1 4.1 19:40:26 30° NW 19:40:26 30° NW 19:43:02 10° NW
H-2A R/B 4.1 19:38:25 10° SSW 19:42:50 25° W 19:47:18 10° NW
NOSS 3-4 (A) 4.3 19:46:45 10° NW 19:53:08 58° W 19:53:08 58° W
NOSS 3-4 (C) 4.3 19:46:52 10° NW 19:53:11 58° W 19:53:11 58° W
USA 215 4.1 19:57:31 42° NNW 19:57:31 42° NNW 20:01:49 10° NW
Lacrosse 5 4.4 19:58:17 10° NW 19:59:23 16° NW 19:59:23 16° NW
ATLAS 2AS CENTAUR R/B 3.8 20:08:35 10° NW 20:13:44 42° WNW 20:13:44 42° WNW
CZ-4C R/B 4.2 20:31:13 10° NW 20:34:49 34° NW 20:34:49 34° NW
